AirNav   SIMCOM
 
 928 users online  

18V Platte Valley Airpark
Hudson, Colorado, USA

GOING TO HUDSON?


FAA INFORMATION EFFECTIVE 07 DECEMBER 2017

Location

FAA Identifier: 18V
Lat/Long: 40-06-09.8000N / 104-42-04.3000W
40-06.163333N / 104-42.071667W
40.1027222 / -104.7011944
(estimated)
Elevation: 4965 ft. / 1513 m (estimated)
Variation: 11E (1985)
From city: 3 miles NW of HUDSON, CO
Time zone: UTC -7 (UTC -6 during Daylight Saving Time)
Zip code: 80621

Airport Operations

Airport use: Open to the public
Activation date: 03/1966
Control tower: no
ARTCC: DENVER CENTER
FSS: DENVER FLIGHT SERVICE STATION
NOTAMs facility: DEN (NOTAM-D service available)
Attendance: DAYLIGHT HOURS
RESIDENCE ON FIELD.
Wind indicator: yes
Segmented circle: no
Lights: ACTIVATE LIRL RY 15/33 - CTAF.

Airport Communications

CTAF: 122.9
WX ASOS at DEN (15 nm S): PHONE 303-342-0838
WX AWOS-3 at EIK (17 nm W): 133.825 (303-604-4339)

Nearby radio navigation aids

VOR radial/distance  VOR name  Freq  Var
DVVr336/13.0MILE HIGH VORTAC114.7008E
DENr346/17.5DENVER VOR/DME117.9008E
BJCr050/23.1JEFFCO VOR/DME115.4011E
GLLr183/25.0GILL VOR/DME114.2013E
FQFr341/25.0FALCON VORTAC116.3011E

Airport Services

Fuel available: 100LL
24 HR CREDIT CARD SVC AVBL.
Parking: hangars and tiedowns
Airframe service: MINOR
Powerplant service: MINOR
Bottled oxygen: NONE
Bulk oxygen: NONE

Runway Information

Runway 15/33

Dimensions: 4100 x 40 ft. / 1250 x 12 m
Surface: asphalt, in excellent condition
Runway edge lights: low intensity
RUNWAY 15  RUNWAY 33
Latitude: 40-06.300875N40-05.647133N
Longitude: 104-42.163087W104-41.941872W
Gradient: 0.1%0.1%
Traffic pattern: leftleft
Runway heading: 154 magnetic, 165 true334 magnetic, 345 true
Markings: basic, in good conditionbasic, in good condition
Obstructions: 5 ft. pole, 220 ft. from runway, 50 ft. right of centerline, 4:1 slope to clear14 ft. gnd, 545 ft. from runway, 24:1 slope to clear
10 FT ACCESS ROAD 50 FT FM THLD OB, +40 FT TREES 300 FT R OF CNTRLN 120 FT N OF THLD.

Runway 9/27

Dimensions: 2500 x 90 ft. / 762 x 27 m
Surface: turf/gravel, in fair condition
RUNWAY 9  RUNWAY 27
Latitude: 40-06.524833N40-06.420667N
Longitude: 104-42.363000W104-41.844000W
Traffic pattern: leftleft
Obstructions: 4 ft. gnd, 40 ft. from runway, 10:1 slope to clear17 ft. road, 64 ft. from runway, 3:1 slope to clear

Airport Ownership and Management from official FAA records

Ownership: Privately-owned
Owner: PLATTE VALLEY AIRPARK LIMITED
7507 WELD COUNTY RD 39
FORT LUPTON, CO 80621
Phone 303-536-0380
Manager: KEVIN KENNELLY
7507 WELD COUNT RD 39
FORT LUPTON, CO 80621
Phone 303-536-0380

Airport Operational Statistics

Aircraft based on the field: 76
Single engine airplanes: 76
    
Aircraft operations: avg 92/week *
50% transient general aviation
50% local general aviation
* for 12-month period ending 31 December 2015

Additional Remarks

DIRT TWY SOFT WHEN WET.
RY 09/27 HAS -3 FT DITCH 45 FT N OF RY EDGE FULL LENGTH.
RY 09 HAS MULTIPLE +15 FT TREES 175 FT L OF THLD CNTRLN; +15 FT STACK 100 FT FM THLD 150 L OF CNTRLN; +12 FT WINDSOCK 30 FT R OF THLD CNTRLN.
TWY INTERSECTS RY 09/27 MIDFIELD.
RY 15 HAS +6 FT POLE 240 FT FM THLD 50 FT R OF CNTRLN.
RY 27 HAS +20 FT POLE AND +15 FT TANK 185 FT FM THLD 90 FT L OF CNTRLN; +30 FT POLE 30 FT FM THLD 90 FT LEFT AND RIGHT OF CNTRLN; +15 FT HNGR 155 FT W OF THLD 75 FT N OF CNTRLN.

Instrument Procedures

There are no published instrument procedures at 18V.

Some nearby airports with instrument procedures:

KDEN - Denver International Airport (15 nm S)
KEIK - Erie Municipal Airport (17 nm W)
KGXY - Greeley-Weld County Airport (20 nm N)
KFTG - Front Range Airport (21 nm S)
KLMO - Vance Brand Airport (22 nm W)
 
Loc | Ops | Rwys | IFR | FBO | Links
Com | Nav | Svcs | Stats | Notes


 
Area around 18V (Platte Valley Airpark)
 
Road maps at: MapQuest Bing Google
 
Aerial photo
WARNING: Photo may not be current or correct
Aerial photo of 18V (Platte Valley Airpark)
Do you have a better or more recent aerial photo of Platte Valley Airpark that you would like to share? If so, please send us your photo.

 
Sectional chart

 
Airport distance calculator
Flying to Platte Valley Airpark? Find the distance to fly.

From to 18V

Sunrise and sunset
Times for 16-Dec-2017
 Local
(UTC-7)
 Zulu
(UTC)
Morning civil twilight06:4513:45
Sunrise07:1614:16
Sunset16:3323:33
Evening civil twilight17:0400:04

Current date and time
Zulu (UTC)  16-Dec-2017 19:23:58
Local (UTC-7)  16-Dec-2017 12:23:58
 
METAR
KDEN 
16nm S 
161853Z 34006KT 10SM SCT140 BKN220 08/M11 A2982 RMK AO2 SLP070 T00831106 $
KEIK 
17nm W 
161853Z AUTO 03005KT 10SM CLR 08/M13 A2988 RMK AO2 T00801130
KGXY 
19nm N 
161756Z AUTO 36014KT 10SM CLR 09/M10 A2986 RMK AO2 SLP127 T00941100 10094 21022 51015
KFTG 
20nm S 
161852Z 01008G17KT 10SM BKN150 BKN220 09/M11 A2983
KLMO 
22nm W 
161855Z AUTO 36007KT 10SM CLR 11/M11 A2985 RMK AO2 T01081109
KBJC 
22nm SW 
161845Z 02006KT 30SM SCT150 08/M13 A2984
KBKF 
23nm S 
161858Z 01010KT 10SM SCT150 BKN220 08/M12 A2983 RMK AO2A SLP077 T00841121
K1V5 
24nm W 
AWOS 118.825 303-541-9540
No observation available
KBDU 
24nm W 
161854Z AUTO 05007KT 012V072 10SM CLR 08/M12 A2983 RMK AO2
KFNL 
25nm NW 
161856Z AUTO 36006KT 10SM CLR 08/M09 A2984 RMK AO2 SLP100 T00831094
TAF
KDEN 
16nm S 
161739Z 1618/1724 03010KT P6SM BKN150 FM170200 07008KT P6SM FEW080 BKN140 FM170500 08007KT P6SM SCT014 BKN140 FM170700 08007KT P6SM SCT008 BKN014 FM170900 10006KT 4SM BR BKN005 OVC008 PROB30 1709/1713 1SM -FZDZ BR OVC003 FM171500 16007KT P6SM SCT008 OVC014 TEMPO 1715/1717 BKN008 FM171900 12007KT P6SM SCT025 BKN140
NOTAMs
Click for the latest NOTAMs
NOTAMs are issued by the DoD/FAA and will open in a separate window not controlled by AirNav.

 

 
 

FBO, Fuel Providers, and Aircraft Ground Support

  
 Business Name 
 
 Contact 
 
 Services / Description 
 
Fuel Prices
 
Comments
  
Platte Valley Fuel 303-986-6121 Aviation fuel

More info about Platte Valley Fuel
Phillips 66
100LL
SS $4.20 
 Updated 07-Dec-2017
 
   1 read write
SS=Self service
Update Fuel Prices
 

Would you like to see your business listed on this page?

 If your business provides an interesting product or service to pilots, flight crews, aircraft, or users of the Platte Valley Airpark, you should consider listing it here.  To start the listing process, click on the button below
 
Add a business
 

Other Pages about Platte Valley Airpark

Update a link
 
Copyright © AirNav, LLC. All rights reserved. Privacy Policy  Contact